{"data":{"norad_id":65357,"intl_designator":"2025-190G","name":"STARLINK-34860","alt_names":[],"object_type":"PAYLOAD","status":"ACTIVE","operator":null,"country":"US","launch_date":"2025-08-28","launch_site_code":"AFETR","launch_vehicle":null,"mission":null,"orbit_class":"UNKNOWN","rcs_meters":null,"size_class":null,"mass_kg":null,"dimensions":null,"purposes":["comms"],"wikipedia_slug":null,"has_3d_model":false,"image_url":null,"decayed_at":null,"tle_current":{"epoch":"2026-05-25T02:28:21.018720Z","epoch_age_seconds":62294,"freshness":"FRESH","line1":"1 65357U 25190G   26145.10302105  .00009854  00000+0  34432-3 0  9997","line2":"2 65357  53.1572 173.3065 0001245  91.7931 268.3212 15.30206054 40989","mean_motion":15.30206054,"eccentricity":0.0001245,"inclination_deg":53.1572,"raan_deg":173.3065,"arg_perigee_deg":91.7931,"mean_anomaly_deg":268.3212,"bstar":0.00034432,"rev_number":4098,"period_min":94.104973394648,"perigee_km":474.34375324399,"apogee_km":476.05023340833,"semimajor_km":6853.3339933262,"source":"CELESTRAK","updated_at":"2026-05-25T13:38:20.765892Z"}}}